AAL1302 KPHX-KONT

Flight info

Callsign AAL1302
Flight time 0h 49m
Altitude 28000
Route KEENS3 HRRBR PHRED SCBBY2
Aircraft B738/M-SABDFGRVYL/LB2

Departure

Time 2026-05-05 03:03
Airport Phoenix Sky Harbor International Airport (KPHX)

Arrival

Time 2026-05-05 03:53
Airport Ontario International Airport (KONT)
Time Latitude Longitude Altitude Speed Heading
2026-05-05 02:36 33.43752 -111.99738 1135 ft 0 kts 90°
2026-05-05 02:48 33.43752 -111.99739 1135 ft 0 kts 90°
2026-05-05 02:54 33.43752 -111.99742 1135 ft 2 kts 89°
2026-05-05 02:54 33.43751 -111.99760 1135 ft 2 kts 90°
2026-05-05 02:55 33.43751 -111.99771 1135 ft 2 kts 91°
2026-05-05 02:55 33.43749 -111.99789 1135 ft 2 kts 65°
2026-05-05 02:55 33.43741 -111.99805 1135 ft 2 kts 49°
2026-05-05 02:55 33.43729 -111.99816 1134 ft 2 kts 30°
2026-05-05 02:56 33.43716 -111.99823 1134 ft 2 kts 12°
2026-05-05 02:56 33.43706 -111.99824 1134 ft 0 kts
2026-05-05 02:56 33.43700 -111.99824 1134 ft 0 kts 359°
2026-05-05 02:58 33.43704 -111.99824 1134 ft 2 kts 358°
2026-05-05 02:58 33.43752 -111.99827 1135 ft 10 kts 358°
2026-05-05 02:59 33.43854 -111.99829 1136 ft 16 kts
2026-05-05 02:59 33.43906 -111.99741 1136 ft 14 kts 87°
2026-05-05 02:59 33.43907 -111.99630 1137 ft 13 kts 91°
2026-05-05 02:59 33.43905 -111.99497 1137 ft 16 kts 91°
2026-05-05 03:00 33.43904 -111.99371 1137 ft 14 kts 90°
2026-05-05 03:00 33.43897 -111.99255 1137 ft 13 kts 117°
2026-05-05 03:00 33.43806 -111.99229 1136 ft 16 kts 180°
2026-05-05 03:00 33.43675 -111.99231 1135 ft 19 kts 180°
2026-05-05 03:01 33.43541 -111.99231 1134 ft 19 kts 180°
2026-05-05 03:01 33.43409 -111.99229 1133 ft 18 kts 179°
2026-05-05 03:01 33.43281 -111.99230 1132 ft 17 kts 181°
2026-05-05 03:01 33.43208 -111.99264 1131 ft 7 kts 222°
2026-05-05 03:02 33.43200 -111.99274 1131 ft 4 kts 224°
2026-05-05 03:02 33.43132 -111.99354 1130 ft 18 kts 229°
2026-05-05 03:02 33.43105 -111.99455 1130 ft 11 kts 271°
2026-05-05 03:02 33.43105 -111.99573 1130 ft 32 kts 269°
2026-05-05 03:03 33.43105 -112.00191 1130 ft 112 kts 269°
2026-05-05 03:03 33.43111 -112.01407 1181 ft 172 kts 270°
2026-05-05 03:03 33.43141 -112.02864 1903 ft 182 kts 270°
2026-05-05 03:03 33.43136 -112.04349 2791 ft 183 kts 264°
2026-05-05 03:04 33.43012 -112.05890 3405 ft 191 kts 261°
2026-05-05 03:04 33.42832 -112.07501 3956 ft 201 kts 255°
2026-05-05 03:04 33.42385 -112.09156 4417 ft 218 kts 247°
2026-05-05 03:04 33.41800 -112.10884 4941 ft 234 kts 246°
2026-05-05 03:05 33.41191 -112.12759 5574 ft 247 kts 248°
2026-05-05 03:05 33.40586 -112.14728 6174 ft 260 kts 248°
2026-05-05 03:05 33.39960 -112.16781 6983 ft 265 kts 248°
2026-05-05 03:05 33.39369 -112.18849 7795 ft 269 kts 252°
2026-05-05 03:06 33.39146 -112.21080 8655 ft 276 kts 269°
2026-05-05 03:06 33.39438 -112.23334 9489 ft 280 kts 278°
2026-05-05 03:06 33.39862 -112.25634 10271 ft 284 kts 278°
2026-05-05 03:06 33.40272 -112.27969 10798 ft 297 kts 277°
2026-05-05 03:07 33.40667 -112.30438 11339 ft 309 kts 277°
2026-05-05 03:07 33.41057 -112.33038 11822 ft 323 kts 277°
2026-05-05 03:07 33.41451 -112.35719 12266 ft 338 kts 277°
2026-05-05 03:07 33.41866 -112.38548 12891 ft 347 kts 277°
2026-05-05 03:08 33.42278 -112.41361 13727 ft 348 kts 277°
2026-05-05 03:08 33.42697 -112.44190 14618 ft 349 kts 277°
2026-05-05 03:08 33.43118 -112.47020 15519 ft 348 kts 277°
2026-05-05 03:08 33.43535 -112.49842 16444 ft 347 kts 276°
2026-05-05 03:09 33.43954 -112.52687 17154 ft 351 kts 276°
2026-05-05 03:09 33.44378 -112.55591 17925 ft 353 kts 276°
2026-05-05 03:09 33.44788 -112.58456 18604 ft 356 kts 275°
2026-05-05 03:09 33.45081 -112.61404 19236 ft 358 kts 270°
2026-05-05 03:10 33.45197 -112.64374 19872 ft 360 kts 267°
2026-05-05 03:10 33.45232 -112.67398 20531 ft 363 kts 265°
2026-05-05 03:10 33.45243 -112.70428 21054 ft 368 kts 265°
2026-05-05 03:10 33.45257 -112.73511 21653 ft 372 kts 264°
2026-05-05 03:11 33.45282 -112.76619 22297 ft 373 kts 264°
2026-05-05 03:11 33.45383 -112.79718 22846 ft 379 kts 267°
2026-05-05 03:11 33.45733 -112.82849 23410 ft 386 kts 271°
2026-05-05 03:11 33.46271 -112.86033 24046 ft 390 kts 274°
2026-05-05 03:12 33.46877 -112.89195 24652 ft 392 kts 275°
2026-05-05 03:12 33.47494 -112.92320 25320 ft 391 kts 275°
2026-05-05 03:12 33.48128 -112.95515 25966 ft 390 kts 274°
2026-05-05 03:12 33.48747 -112.98679 26301 ft 396 kts 274°
2026-05-05 03:13 33.49364 -113.01901 26847 ft 397 kts 274°
2026-05-05 03:13 33.49976 -113.05099 27497 ft 395 kts 274°
2026-05-05 03:13 33.50578 -113.08305 27880 ft 398 kts 273°
2026-05-05 03:13 33.51189 -113.11589 27923 ft 401 kts 274°
2026-05-05 03:14 33.51792 -113.14822 27921 ft 398 kts 273°
2026-05-05 03:14 33.52394 -113.18050 27925 ft 399 kts 273°
2026-05-05 03:14 33.52988 -113.21301 27927 ft 409 kts 273°
2026-05-05 03:14 33.53603 -113.24696 27926 ft 419 kts 274°
2026-05-05 03:15 33.54221 -113.28096 27926 ft 423 kts 274°
2026-05-05 03:15 33.54852 -113.31529 27924 ft 422 kts 274°
2026-05-05 03:15 33.55485 -113.34956 27928 ft 422 kts 274°
2026-05-05 03:15 33.56119 -113.38364 27930 ft 417 kts 273°
2026-05-05 03:16 33.56742 -113.41759 27929 ft 420 kts 274°
2026-05-05 03:16 33.57364 -113.45187 27931 ft 423 kts 273°
2026-05-05 03:16 33.57984 -113.48590 27927 ft 420 kts 273°
2026-05-05 03:16 33.58609 -113.52035 27917 ft 421 kts 274°
2026-05-05 03:17 33.59228 -113.55406 27924 ft 418 kts 274°
2026-05-05 03:17 33.59869 -113.58843 27919 ft 421 kts 274°
2026-05-05 03:17 33.60513 -113.62267 27916 ft 421 kts 274°
2026-05-05 03:17 33.61158 -113.65711 27917 ft 425 kts 273°
2026-05-05 03:18 33.61807 -113.69173 27907 ft 423 kts 273°
2026-05-05 03:18 33.62454 -113.72624 27907 ft 422 kts 273°
2026-05-05 03:18 33.63094 -113.76053 27904 ft 423 kts 273°
2026-05-05 03:18 33.63732 -113.79482 27902 ft 421 kts 273°
2026-05-05 03:19 33.64770 -113.86382 27897 ft 417 kts 267°
2026-05-05 03:19 33.64955 -113.89799 27902 ft 410 kts 263°
2026-05-05 03:19 33.64999 -113.93182 27898 ft 406 kts 262°
2026-05-05 03:20 33.64961 -113.96606 27892 ft 411 kts 262°
2026-05-05 03:20 33.64891 -113.99989 27898 ft 408 kts 261°
2026-05-05 03:20 33.64824 -114.03383 27896 ft 408 kts 261°
2026-05-05 03:20 33.64754 -114.06789 27896 ft 404 kts 260°
2026-05-05 03:21 33.64684 -114.10164 27894 ft 409 kts 262°
2026-05-05 03:21 33.64726 -114.13540 27887 ft 409 kts 265°
2026-05-05 03:21 33.64954 -114.16964 27891 ft 416 kts 266°
2026-05-05 03:21 33.65276 -114.20405 27882 ft 413 kts 268°
2026-05-05 03:22 33.65639 -114.23846 27879 ft 412 kts 268°
2026-05-05 03:22 33.66006 -114.27240 27879 ft 417 kts 269°
2026-05-05 03:22 33.66377 -114.30681 27878 ft 414 kts 269°
2026-05-05 03:22 33.66742 -114.34106 27878 ft 413 kts 268°
2026-05-05 03:23 33.67097 -114.37512 27887 ft 419 kts 268°
2026-05-05 03:23 33.67456 -114.40975 27878 ft 414 kts 268°
2026-05-05 03:23 33.67802 -114.44429 27876 ft 419 kts 268°
2026-05-05 03:23 33.68139 -114.47847 27876 ft 420 kts 268°
2026-05-05 03:24 33.68478 -114.51307 27870 ft 412 kts 268°
2026-05-05 03:24 33.68813 -114.54743 27872 ft 416 kts 268°
2026-05-05 03:24 33.69144 -114.58206 27873 ft 419 kts 268°
2026-05-05 03:24 33.69471 -114.61661 27866 ft 415 kts 268°
2026-05-05 03:25 33.69801 -114.65089 27867 ft 417 kts 267°
2026-05-05 03:25 33.70108 -114.68327 27866 ft 417 kts 267°
2026-05-05 03:25 33.70444 -114.71854 27873 ft 415 kts 266°
2026-05-05 03:25 33.70778 -114.75297 27881 ft 411 kts 267°
2026-05-05 03:26 33.71105 -114.78695 27868 ft 412 kts 267°
2026-05-05 03:26 33.71430 -114.82130 27867 ft 413 kts 267°
2026-05-05 03:26 33.71749 -114.85522 27872 ft 413 kts 267°
2026-05-05 03:26 33.72072 -114.88960 27868 ft 412 kts 267°
2026-05-05 03:27 33.72389 -114.92342 27868 ft 411 kts 266°
2026-05-05 03:27 33.72708 -114.95792 27872 ft 417 kts 267°
2026-05-05 03:27 33.73027 -114.99232 27869 ft 417 kts 266°
2026-05-05 03:27 33.73346 -115.02653 27862 ft 414 kts 267°
2026-05-05 03:28 33.73668 -115.06078 27873 ft 414 kts 267°
2026-05-05 03:28 33.73987 -115.09527 27872 ft 412 kts 267°
2026-05-05 03:28 33.74301 -115.12931 27861 ft 412 kts 267°
2026-05-05 03:28 33.74612 -115.16351 27864 ft 416 kts 267°
2026-05-05 03:29 33.74931 -115.19775 27863 ft 414 kts 267°
2026-05-05 03:29 33.75273 -115.23231 27858 ft 413 kts 267°
2026-05-05 03:29 33.75619 -115.26643 27872 ft 416 kts 267°
2026-05-05 03:29 33.75972 -115.30083 27865 ft 416 kts 268°
2026-05-05 03:30 33.76326 -115.33495 27881 ft 409 kts 267°
2026-05-05 03:30 33.76676 -115.36888 27885 ft 411 kts 268°
2026-05-05 03:30 33.77020 -115.40276 27885 ft 410 kts 266°
2026-05-05 03:30 33.77367 -115.43681 27894 ft 408 kts 268°
2026-05-05 03:31 33.77714 -115.47034 27885 ft 410 kts 267°
2026-05-05 03:31 33.78066 -115.50447 27891 ft 415 kts 267°
2026-05-05 03:31 33.78421 -115.53883 27901 ft 414 kts 267°
2026-05-05 03:31 33.78775 -115.57288 27913 ft 407 kts 268°
2026-05-05 03:32 33.79121 -115.60615 27895 ft 404 kts 267°
2026-05-05 03:32 33.79465 -115.63991 27912 ft 407 kts 268°
2026-05-05 03:32 33.79805 -115.67342 27911 ft 407 kts 266°
2026-05-05 03:32 33.80141 -115.70737 27916 ft 410 kts 266°
2026-05-05 03:33 33.80480 -115.74151 27924 ft 408 kts 267°
2026-05-05 03:33 33.80822 -115.77557 27934 ft 409 kts 266°
2026-05-05 03:33 33.81154 -115.80909 27927 ft 410 kts 266°
2026-05-05 03:33 33.81491 -115.84315 27928 ft 409 kts 266°
2026-05-05 03:34 33.81828 -115.87688 27851 ft 399 kts 266°
2026-05-05 03:34 33.82158 -115.90939 27447 ft 391 kts 266°
2026-05-05 03:34 33.82481 -115.94152 26896 ft 387 kts 267°
2026-05-05 03:34 33.82795 -115.97344 26373 ft 382 kts 268°
2026-05-05 03:35 33.83101 -116.00472 25849 ft 377 kts 268°
2026-05-05 03:35 33.83404 -116.03558 25226 ft 376 kts 269°
2026-05-05 03:35 33.83711 -116.06700 24555 ft 375 kts 269°
2026-05-05 03:35 33.84009 -116.09788 23880 ft 375 kts 270°
2026-05-05 03:36 33.84309 -116.12885 23190 ft 375 kts 271°
2026-05-05 03:36 33.84618 -116.15991 22525 ft 374 kts 271°
2026-05-05 03:36 33.84928 -116.19045 21849 ft 373 kts 272°
2026-05-05 03:36 33.85239 -116.22122 21172 ft 372 kts 272°
2026-05-05 03:37 33.85558 -116.25240 20486 ft 372 kts 273°
2026-05-05 03:37 33.85870 -116.28302 20016 ft 368 kts 273°
2026-05-05 03:37 33.86185 -116.31307 19950 ft 366 kts 273°
2026-05-05 03:37 33.86516 -116.34383 19926 ft 374 kts 274°
2026-05-05 03:38 33.86854 -116.37513 19572 ft 374 kts 274°
2026-05-05 03:38 33.87191 -116.40603 18841 ft 375 kts 274°
2026-05-05 03:38 33.87538 -116.43682 18090 ft 376 kts 276°
2026-05-05 03:38 33.88024 -116.46771 17376 ft 378 kts 280°
2026-05-05 03:39 33.88685 -116.49831 16697 ft 378 kts 283°
2026-05-05 03:39 33.89427 -116.52821 16116 ft 375 kts 284°
2026-05-05 03:39 33.90205 -116.55789 15973 ft 364 kts 285°
2026-05-05 03:39 33.90967 -116.58669 15961 ft 361 kts 285°
2026-05-05 03:40 33.91721 -116.61553 15927 ft 364 kts 284°
2026-05-05 03:40 33.92468 -116.64453 15572 ft 360 kts 284°
2026-05-05 03:40 33.93196 -116.67313 15110 ft 354 kts 283°
2026-05-05 03:40 33.93898 -116.70077 14812 ft 337 kts 284°
2026-05-05 03:41 33.94480 -116.72729 14482 ft 322 kts 278°
2026-05-05 03:41 33.94797 -116.75391 13636 ft 325 kts 271°
2026-05-05 03:41 33.94829 -116.78086 12859 ft 324 kts 266°
2026-05-05 03:41 33.94730 -116.80766 12321 ft 317 kts 265°
2026-05-05 03:42 33.94606 -116.83367 11813 ft 312 kts 265°
2026-05-05 03:42 33.94490 -116.85986 11263 ft 312 kts 266°
2026-05-05 03:42 33.94388 -116.88560 10753 ft 312 kts 266°
2026-05-05 03:42 33.94296 -116.91138 10408 ft 304 kts 267°
2026-05-05 03:43 33.94212 -116.93607 10267 ft 287 kts 267°
2026-05-05 03:43 33.94199 -116.95946 10153 ft 270 kts 273°
2026-05-05 03:43 33.94584 -116.98117 9996 ft 262 kts 288°
2026-05-05 03:43 33.95304 -117.00111 9699 ft 260 kts 293°
2026-05-05 03:44 33.96080 -117.02062 9331 ft 259 kts 292°
2026-05-05 03:44 33.96821 -117.04028 9012 ft 257 kts 291°
2026-05-05 03:44 33.97524 -117.05982 8685 ft 255 kts 291°
2026-05-05 03:44 33.98213 -117.07944 8355 ft 253 kts 291°
2026-05-05 03:45 33.98891 -117.09897 8031 ft 251 kts 291°
2026-05-05 03:45 33.99553 -117.11809 7712 ft 249 kts 291°
2026-05-05 03:45 34.00229 -117.13753 7385 ft 252 kts 291°
2026-05-05 03:45 34.00909 -117.15699 7060 ft 252 kts 291°
2026-05-05 03:46 34.01571 -117.17648 6737 ft 250 kts 289°
2026-05-05 03:46 34.02075 -117.19635 6410 ft 248 kts 284°
2026-05-05 03:46 34.02497 -117.21644 6085 ft 247 kts 283°
2026-05-05 03:46 34.02918 -117.23648 5766 ft 245 kts 284°
2026-05-05 03:47 34.03346 -117.25629 5444 ft 245 kts 284°
2026-05-05 03:47 34.03779 -117.27605 5171 ft 245 kts 284°
2026-05-05 03:47 34.04207 -117.29570 5067 ft 234 kts 284°
2026-05-05 03:47 34.04612 -117.31430 4984 ft 224 kts 284°
2026-05-05 03:48 34.04992 -117.33202 4884 ft 216 kts 284°
2026-05-05 03:48 34.05354 -117.34914 4744 ft 208 kts 283°
2026-05-05 03:48 34.05612 -117.36626 4489 ft 206 kts 275°
2026-05-05 03:48 34.05663 -117.38342 4212 ft 204 kts 270°
2026-05-05 03:49 34.05660 -117.40035 3925 ft 203 kts 270°
2026-05-05 03:49 34.05661 -117.41713 3658 ft 200 kts 271°
2026-05-05 03:49 34.05669 -117.43372 3377 ft 197 kts 271°
2026-05-05 03:49 34.05671 -117.45018 3109 ft 194 kts 271°
2026-05-05 03:50 34.05674 -117.46629 2845 ft 192 kts 270°
2026-05-05 03:50 34.05676 -117.48199 2597 ft 181 kts 270°
2026-05-05 03:50 34.05678 -117.49671 2341 ft 168 kts 270°
2026-05-05 03:50 34.05680 -117.51008 2150 ft 149 kts 269°
2026-05-05 03:51 34.05680 -117.52193 1945 ft 135 kts 269°
2026-05-05 03:51 34.05682 -117.53308 1773 ft 132 kts 269°
2026-05-05 03:51 34.05685 -117.54416 1599 ft 132 kts 269°
2026-05-05 03:51 34.05701 -117.55513 1410 ft 129 kts 270°
2026-05-05 03:52 34.05703 -117.56587 1241 ft 128 kts 269°
2026-05-05 03:52 34.05693 -117.57660 1077 ft 126 kts 268°
2026-05-05 03:52 34.05695 -117.58690 948 ft 120 kts 269°
2026-05-05 03:52 34.05687 -117.59506 935 ft 62 kts 270°
2026-05-05 03:53 34.05690 -117.59920 935 ft 31 kts 274°
2026-05-05 03:53 34.05772 -117.59991 937 ft 5 kts
2026-05-05 03:53 34.05781 -117.59991 937 ft 4 kts
2026-05-05 03:53 34.05819 -117.59991 938 ft 5 kts
2026-05-05 03:54 34.05886 -117.59990 940 ft 11 kts
2026-05-05 03:54 34.05915 -117.59946 940 ft 9 kts 103°
2026-05-05 03:54 34.05901 -117.59824 939 ft 18 kts 92°
2026-05-05 03:54 34.05897 -117.59655 940 ft 20 kts 91°
2026-05-05 03:55 34.05896 -117.59493 940 ft 19 kts 90°
2026-05-05 03:55 34.05897 -117.59337 940 ft 18 kts 90°
2026-05-05 03:55 34.05898 -117.59192 941 ft 16 kts 90°
2026-05-05 03:55 34.05899 -117.59058 942 ft 11 kts 83°
2026-05-05 03:56 34.05940 -117.59026 942 ft 7 kts
2026-05-05 03:56 34.05979 -117.59023 944 ft 2 kts
2026-05-05 03:56 34.05983 -117.59022 944 ft 0 kts